Location: Cluj-Napoca
(46.7712°N, 23.6236°E)
Time: 07:14:37
(UTC+02:00)

ISS - Pass Details

Date: 29 January 2021
Orbit: 417 x 422 km, 51.6° (Epoch: 08 March)

Event Time Altitude Azimuth Distance (km) Brightness Sun altitude
Rises 19:03:34 0° 291° (WNW) 2,375 1.2 -17.0°
Reaches altitude 10° 19:05:46 10° 299° (WNW) 1,510 -0.2 -17.4°
Maximum altitude 19:08:58 39° 10° (N) 655 -3.0 -17.9°
Enters shadow 19:09:15 38° 23° (NNE) 665 -3.0 -18.0°
